Weather History for KCID - May, 2013

Change the Weather History Date:

Saturday, May 25, 2013

  Actual Average Record
Temperature  
Mean Temperature 54 °F 63 °F  
Max Temperature 60 °F 74 °F 95 °F (1911)
Min Temperature 48 °F 52 °F 28 °F (1925)
Degree Days  
Heating Degree Days 11 4  
Month to date heating degree days 172 173  
Since 1 July heating degree days 6956 6818  
Cooling Degree Days 0 2  
Month to date cooling degree days 43 27  
Year to date cooling degree days 54 34  
Growing Degree Days 4 (Base 50)    
Moisture  
Dew Point 46 °F    
Average Humidity 83    
Maximum Humidity 93    
Minimum Humidity 72    
Precipitation  
Precipitation 1.07 in 0.14 in 1.20 in (1990)
Month to date precipitation 5.00 3.32  
Year to date precipitation 17.84 10.61  
Sea Level Pressure  
Sea Level Pressure 30.26 in    
Wind  
Wind Speed 12 mph (ESE)    
Max Wind Speed 22 mph    
Max Gust Speed 28 mph    
Visibility 7 miles    
Events Rain , Thunderstorm    
T = Trace of Precipitation, MM = Missing Value Source: NWS Daily Summary

Daily Weather History Graph

Daily Weather History Graph

Search for Another Location

Airport or City:

Trip Planner

Search our weather history database for the weather conditions in past years. The results will help you decide how hot, cold, wet, or windy it might be!

Date:

Astronomy

May. 25, 2013 Rise Set
Actual Time 5:38 AM CDT 8:30 PM CDT
Civil Twilight 5:05 AM CDT 9:03 PM CDT
Nautical Twilight 4:23 AM CDT 9:44 PM CDT
Astronomical Twilight 3:35 AM CDT 10:33 PM CDT
Moon 9:18 PM CDT (5/25) 6:05 AM CDT (5/25)
Length of Visible Light 15h 57m
Length of Day
14h 52m
Full, 100% of the Moon is Illuminated
May 25
Full
May 31
Last Quarter
Jun 8
New
Jun 16
First Quarter
Jun 23
Full

Hourly Weather History & Observations

Time (CDT) Temp. Dew Point Humidity Pressure Visibility Wind Dir Wind Speed Gust Speed Precip Events Conditions
12:52 AM 59.0 °F 41.0 °F 51% 30.24 in 10.0 mi SE 8.1 mph - 0.00 in   Overcast
1:52 AM 59.0 °F 39.9 °F 49% 30.23 in 10.0 mi SSE 9.2 mph - 0.00 in Rain Light Rain
2:52 AM 55.9 °F 45.0 °F 67% 30.27 in 10.0 mi East 8.1 mph - 0.00 in   Overcast
3:52 AM 55.0 °F 46.0 °F 72% 30.25 in 10.0 mi SE 8.1 mph - 0.00 in   Overcast
4:52 AM 55.0 °F 45.0 °F 69% 30.24 in 10.0 mi SE 11.5 mph - 0.00 in Rain Light Rain
5:52 AM 55.0 °F 44.1 °F 67% 30.25 in 10.0 mi SSE 11.5 mph - 0.00 in   Overcast
6:52 AM 53.1 °F 45.0 °F 74% 30.27 in 10.0 mi ESE 12.7 mph - 0.01 in Rain Light Rain
7:52 AM 51.1 °F 45.0 °F 80% 30.28 in 10.0 mi SE 11.5 mph 21.9 mph 0.01 in Rain , Thunderstorm Light Thunderstorms and Rain
8:52 AM 48.9 °F 46.0 °F 90% 30.35 in 2.5 mi SE 5.8 mph - 0.19 in Rain , Thunderstorm Heavy Thunderstorms and Rain
8:53 AM 48.2 °F 46.4 °F 93% 30.34 in 2.5 mi SE 5.8 mph - 0.00 in Rain , Thunderstorm Thunderstorms and Rain
8:54 AM 48.2 °F 46.4 °F 93% 30.34 in 3.0 mi SE 5.8 mph - 0.01 in Rain , Thunderstorm Thunderstorms and Rain
9:52 AM 48.9 °F 46.0 °F 90% 30.31 in 2.5 mi ESE 15.0 mph - 0.30 in Rain , Thunderstorm Heavy Thunderstorms and Rain
10:06 AM 48.2 °F 46.4 °F 93% 30.29 in 4.0 mi SE 17.3 mph 23.0 mph 0.05 in Rain , Thunderstorm Thunderstorms and Rain
10:52 AM 48.0 °F 46.0 °F 93% 30.28 in 4.0 mi SE 13.8 mph 19.6 mph 0.16 in Rain , Thunderstorm Thunderstorms and Rain
11:24 AM 48.2 °F 46.4 °F 93% 30.23 in 7.0 mi SE 12.7 mph 25.3 mph 0.04 in Rain , Thunderstorm Light Thunderstorms and Rain
11:28 AM 48.2 °F 46.4 °F 93% 30.25 in 9.0 mi SE 15.0 mph 21.9 mph 0.04 in Rain Light Rain
11:49 AM 48.2 °F 46.4 °F 93% 30.28 in 6.0 mi SSE 10.4 mph 18.4 mph 0.05 in Rain Light Rain
11:52 AM 48.0 °F 46.0 °F 93% 30.30 in 5.0 mi SSE 11.5 mph 18.4 mph 0.05 in Rain Light Rain
12:23 PM 48.2 °F 46.4 °F 93% 30.23 in 3.0 mi SE 16.1 mph 23.0 mph 0.04 in Rain Light Rain
12:52 PM 48.9 °F 46.9 °F 93% 30.26 in 6.0 mi ESE 10.4 mph 16.1 mph 0.05 in Rain Light Rain
1:46 PM 48.2 °F 46.4 °F 93% 30.28 in 2.5 mi East 8.1 mph - 0.09 in Rain Rain
1:52 PM 48.9 °F 46.9 °F 93% 30.28 in 2.5 mi East 8.1 mph - 0.12 in Rain Rain
1:55 PM 48.2 °F 46.4 °F 93% 30.28 in 2.5 mi East 9.2 mph - 0.01 in Rain Rain
2:52 PM 50.0 °F 48.0 °F 93% 30.27 in 2.5 mi East 13.8 mph - 0.11 in Rain Rain
3:52 PM 50.0 °F 48.0 °F 93% 30.25 in 2.5 mi East 16.1 mph 24.2 mph 0.06 in Rain Light Rain
4:15 PM 50.0 °F 48.2 °F 94% 30.24 in 1.8 mi East 15.0 mph - 0.01 in Rain Light Rain
4:46 PM 51.8 °F 48.2 °F 88% 30.22 in 4.0 mi ESE 19.6 mph 25.3 mph 0.01 in   Light Drizzle
4:52 PM 50.0 °F 48.0 °F 93% 30.23 in 4.0 mi ESE 18.4 mph 26.5 mph 0.01 in   Light Drizzle
5:52 PM 50.0 °F 48.0 °F 93% 30.24 in 10.0 mi ESE 17.3 mph 24.2 mph 0.00 in   Overcast
6:52 PM 51.1 °F 48.0 °F 89% 30.23 in 10.0 mi ESE 16.1 mph - N/A   Overcast
7:52 PM 51.1 °F 48.0 °F 89% 30.23 in 10.0 mi ESE 13.8 mph - N/A   Overcast
7:59 PM 51.8 °F 48.2 °F 88% 30.22 in 10.0 mi ESE 13.8 mph - N/A   Overcast
8:52 PM 51.1 °F 48.0 °F 89% 30.23 in 10.0 mi East 10.4 mph - N/A   Overcast
9:52 PM 50.0 °F 46.9 °F 89% 30.24 in 10.0 mi East 13.8 mph - N/A   Overcast
10:52 PM 50.0 °F 48.0 °F 93% 30.25 in 10.0 mi East 11.5 mph - N/A   Overcast
11:52 PM 50.0 °F 46.9 °F 89% 30.23 in 10.0 mi East 10.4 mph - N/A   Overcast